Find Starlink 32642

NORAD ID: 62211 Int'l Des: 2024-229 Owner: SPXS Country: US Constellation: starlink operational
LEOCIRCULAR

現在のビュー

3D地球を読み込み中...

About Starlink 32642

Starlink 32642 (NORAD 62211) is a starlink constellation satellite (v2 mini) launched Dec 4, 2024 by SPXS of US. It operates in LEO, CIRCULAR orbit with a mass of 730.00 kg.

Starlink 32642について

説明を読み込み中...

次回通過

Passes for default location (London). Set your location on the main map for personalized predictions.

高度履歴

Loading altitude history...

軌道要素

1 62211U 24229V 26167.02856292 .00019303 00000-0 70882-3 0 9991
2 62211 42.9985 75.1210 0003303 278.7700 81.2778 15.27592792 85608
Epoch: Jun 16, 2026 • Age: 9 hours

現在のステータス

高度 493.0 km
速度 7.62 km/s
衛星直下点 -39.77°S, 93.34°W
打ち上げ日 Dec 4, 2024
運用期間 1.5 years
タイプ internet

技術仕様

分類 Payload
質量 730.00 kg
乾燥質量 700.00 kg
総質量 730.00 kg
長さ 0.30 m
直径 4.10 m
スパン 29.00 m
形状 Box + pan
製造者 SPXS
バスタイプ Starlink V2M
フェーズステータス In Orbit
所有者/国 SPXS/US

Most Searched